Regional Weather Roundup
Issued by NWS Little Rock, AR

Home | Current Version | Previous Version | Text Only | Print | Product List | Glossary Off
Versions: 1 2 3 4 5 6 7 8 9 10 11 12 13 14 15 16 17 18 19 20 21 22 23 24 25 26 27 28 29 30 31 32 33 34 35 36 37 38 39 40 41 42 43 44 45 46 47 48 49 50

000
ASUS44 KLZK 210305
RWRLZK

WEATHER ROUNDUP FOR ARKANSAS
NATIONAL WEATHER SERVICE LITTLE ROCK AR
1000 PM CDT MON OCT 20 2014

NOTE: "FAIR" INDICATES FEW OR NO CLOUDS BELOW 12,000 FEET WITH NO
SIGNIFICANT WEATHER AND/OR OBSTRUCTIONS TO VISIBILITY.

ARZ001-003-010-029-210400-
NORTHWEST ARKANSAS

CITY           SKY/WX    TMP DP  RH WIND       PRES   REMARKS
FAYETTEVILLE   FOG       52  52 100 CALM      30.09R VSB 1/4
FORT SMITH     PTCLDY    62  58  86 CALM      30.06R
HARRISON       CLEAR     60  57  89 W7        30.08R
BENTONVILLE      N/A     55  54  94 CALM      30.08R VSB 3/4
ROGERS         CLEAR     58  56  93 SW5       30.09R
SILOAM SPGS    CLOUDY    55  52  88 CALM      30.09S VSB<1/4
HIGHFILL       PTCLDY    53  53 100 CALM      30.08R FOG
$$

ARZ004-005-016-210400-
NORTH CENTRAL ARKANSAS

CITY           SKY/WX    TMP DP  RH WIND       PRES   REMARKS
BATESVILLE     CLEAR     61  55  82 W3        30.04R
FLIPPIN        CLEAR     63  54  72 CALM      30.06R
MTN HOME       CLEAR     60  58  92 CALM      30.05R
$$

ARZ040-041-210400-
WEST CENTRAL ARKANSAS

CITY           SKY/WX    TMP DP  RH WIND       PRES   REMARKS
MENA           CLEAR     61  59  94 CALM      30.08R
MOUNT IDA      PTCLDY    58  57  97 CALM      30.05R FOG
$$

ARZ009-017-025-026-028-210400-
NORTHEAST ARKANSAS

CITY           SKY/WX    TMP DP  RH WIND       PRES   REMARKS
JONESBORO      CLEAR     62  56  80 W5        30.02R
NEWPORT        CLEAR     58  55  89 SW5       30.04R
WALNUT RIDGE   CLEAR     63  55  77 SW7       30.01R
BLYTHEVILLE    PTCLDY    61  54  77 SW5       30.02R
$$

ARZ022-023-033-042-044-210400-
CENTRAL ARKANSAS

CITY           SKY/WX    TMP DP  RH WIND       PRES   REMARKS
LITTLE ROCK    CLEAR     62  54  74 SW3       30.05R
N LITTLE ROCK  CLEAR     62  58  87 NW3       30.05R
JACKSONVILLE   CLEAR     57  55  91 CALM      30.06R
SEARCY         PTCLDY    56  55  97 CALM      30.06R
HOT SPRINGS    CLEAR     59  57  93 CALM      30.06R
RUSSELLVILLE   CLEAR     57  55  93 CALM      30.05R
$$

ARZ036-210400-
EAST ARKANSAS

CITY           SKY/WX    TMP DP  RH WIND       PRES   REMARKS
WEST MEMPHIS   CLEAR     60  55  83 S7        30.03S
$$

ARZ050-053-066-070-073-210400-
SOUTHWEST ARKANSAS

CITY           SKY/WX    TMP DP  RH WIND       PRES   REMARKS
ARKADELPHIA    FAIR      60  60 100 CALM      30.06R
CAMDEN         PTCLDY    57  55  94 CALM      30.06R FOG
TEXARKANA      CLEAR     62  57  83 CALM      30.06R
EL DORADO      CLEAR     58  56  93 CALM      30.06R
DE QUEEN       FOG       59  59 100 CALM      30.04R VSB 1/4
$$

ARZ056-057-069-210400-
SOUTHEAST ARKANSAS

CITY           SKY/WX    TMP DP  RH WIND       PRES   REMARKS
PINE BLUFF     CLEAR     57  55  93 CALM      30.06R
STUTTGART      CLEAR     61  54  77 SW3       30.06S
MONTICELLO     CLEAR     59  56  89 CALM      30.05R

$$





USA.gov is the U.S. government's official web portal to all federal, state and local government web resources and services.